Skip Page Navigation
NASA JPL Caltech
NASA Logo - Jet Propulsion Laboratory + View the NASA Portal
+ Near-Earth Object (NEO) Program
Search JPL
JPL Home Earth Solar System Stars & Galaxies Technology
JPL Solar System Dynamics
BODIES ORBITS EPHEMERIDES TOOLS PHYSICAL DATA DISCOVERY FAQ SITE MAP
JPL Small-Body Database Browser
Search: [ help ]  
166745 Pindor (2002 TV307)
Classification: Main-belt Asteroid          SPK-ID: 2166745
Ephemeris | Orbit Diagram | Orbital Elements | Physical Parameters | Discovery Circumstances ]

[ hide orbit diagram ]
Orbit Diagram
Note: Make sure you have Java enabled on your browser to see the applet. This applet is provided as a 3D orbit visualization tool. The applet was implemented using 2-body methods, and hence should not be used for determining accurate long-term trajectories (over several years or decades) or planetary encounter circumstances. For accurate long-term ephemerides, please instead use our Horizons system.
Orbit Viewer

Additional Notes: the orbits shown in the applet are color coded. The planets are white lines, and the asteroid/comet is a blue line. The bright white line indicates the portion of the orbit that is above the ecliptic plane, and the darker portion is below the ecliptic plane. Likewise for the asteroid/comet orbit, the light blue indicates the portion above the ecliptic plane, and the dark blue the portion below the ecliptic plane.

Orbit Viewer applet originally written and kindly provided by Osamu Ajiki (AstroArts), and further modified by Ron Baalke (JPL).


Orbital Elements at Epoch 2456400.5 (2013-Apr-18.0) TDB
Reference: MPO176720 (heliocentric ecliptic J2000)
 Element Value Uncertainty (1-sigma)   Units 
e 0.0523020 n/a  
a 3.1560160 n/a AU
q 2.9909501 n/a AU
i 12.05134 n/a deg
node 166.28753 n/a deg
peri 161.94770 n/a deg
M 2.71942 n/a deg
tp 2456385.0303314
(2013-Apr-02.53033140)
n/a JED
period 2047.8928178
5.61
n/a
n/a
d
yr
n 0.17579045 n/a deg/d
Q 3.3210819 n/a AU
  Orbit Determination Parameters
   # obs. used (total)      66  
   first obs. used      2002-??-??  
   last obs. used      2010-04-15  
   # oppositions      6  
   planetary ephem.      DE403  
   condition code      0  
   fit RMS      0.42  
   data source      MPC:mpu  
   producer      MPCMEL  

Additional Information
 T_jup = 3.170 

Ephemeris | Orbit Diagram | Orbital Elements | Physical Parameters | Discovery Circumstances ]

Physical Parameter Table
Parameter Symbol Value Units Sigma Reference Notes
absolute magnitude H 15.4 mag n/a MPO176720  

166745 Pindor           Discovered 2002 Oct. 4 by the Sloan Digital Sky Survey at Apache Point.
Bartosz Pindor (b. 1975) is an Canadian astronomer and a contributor to the Sloan Digital Sky Survey, known for work on gravitationally-lensed quasars.
NOTE: some special characters may not display properly (any characters within {} are an attempt to place the proper accent above a character)
Reference: 20130127/MPCPages.arcLast Updated: 2013-01-31

Alternate Designations
 2002 TV307 = 2005 DR 
Ephemeris | Orbit Diagram | Orbital Elements | Physical Parameters | Discovery Circumstances ]
ABOUT SSD CREDITS/AWARDS PRIVACY/COPYRIGHT GLOSSARY LINKS
FirstGov 2013-May-25 03:19 UT
(server date/time)  
NASA Home Page
Site Manager:   Donald K. Yeomans
Webmaster  Alan B. Chamberlin